Location: Unspecified
(0.0000°N, 0.0000°E)
Time: 00:35:50
(UTC+00:00)

S-56A Canister/Altair - Pass Details

Date: 04 October 2020
Orbit: 633 x 2499 km, 38.9° (Epoch: 25 October)

Event Time Altitude Azimuth Distance (km) Brightness Sun altitude
Rises 18:23:28 0° 332° (NNW) 5,826 12.3 -8.7°
Reaches altitude 10° 18:29:36 10° 350° (N) 4,497 11.5 -10.2°
Maximum altitude 18:36:31 17° 26° (NNE) 3,479 10.6 -12.0°
Enters shadow 18:41:29 12° 59° (ENE) 3,506 10.3 -13.2°
